CST,Max TemperatureF,Mean TemperatureF,Min TemperatureF,Max Dew PointF,MeanDew PointF,Min DewpointF,Max Humidity, Mean Humidity, Min Humidity, Max Sea Level PressureIn, Mean Sea Level PressureIn, Min Sea Level PressureIn, Max VisibilityMiles, Mean VisibilityMiles, Min VisibilityMiles, Max Wind SpeedMPH, Mean Wind SpeedMPH, Max Gust SpeedMPH,PrecipitationIn, CloudCover, Events, WindDirDegrees
2011-12-1,54,42,31,32,25,16,94,57,39,30.43,30.25,30.12,10,10,10,16,8,25,0.00,1,,232
2011-12-2,46,39,32,43,35,30,100,82,65,30.46,30.35,30.22,10,10,5,14,8,,0.00,7,Rain,131
2011-12-3,55,50,45,55,49,41,100,95,67,30.20,30.01,29.88,10,9,4,20,13,29,0.48,6,Rain,181
2011-12-4,48,38,28,46,34,27,100,93,79,30.33,30.15,29.95,10,10,10,20,12,26,0.00,7,,311
2011-12-5,28,26,23,26,22,19,94,82,74,30.44,30.37,30.30,10,10,10,18,12,24,0.00,6,,8
2011-12-6,27,23,18,22,19,14,94,85,76,30.40,30.33,30.27,10,8,2,15,10,,0.00,6,Snow,336
2011-12-7,38,24,11,21,17,9,92,73,47,30.29,30.22,30.17,10,10,10,17,7,22,0.00,1,,227
2011-12-8,40,30,21,28,24,19,92,79,57,30.29,30.23,30.19,10,10,10,8,5,,0.00,2,,277
2011-12-9,35,30,25,32,24,16,100,79,51,30.55,30.39,30.25,10,10,9,15,8,,0.00,6,,12
2011-12-10,42,30,17,27,23,16,98,78,52,30.58,30.51,30.44,10,10,10,15,6,18,0.00,0,,195
2011-12-11,50,37,24,34,29,25,100,82,53,30.45,30.38,30.29,10,9,3,17,9,,0.00,1,,186
2011-12-12,46,42,37,40,31,25,100,68,49,30.36,30.32,30.27,10,9,4,14,9,,0.00,8,,189
2011-12-13,47,43,39,48,43,39,100,100,100,30.37,30.29,30.10,10,7,1,10,7,,0.30,7,Rain,173
2011-12-14,59,54,48,60,55,48,100,100,100,30.08,29.90,29.77,10,9,5,21,14,26,0.21,7,Rain-Thunderstorm,193
2011-12-15,52,40,24,53,34,23,100,87,64,30.41,30.15,29.81,10,10,10,17,11,24,0.00,4,,318
2011-12-16,38,30,22,26,24,22,99,85,57,30.50,30.43,30.40,10,10,10,8,4,,0.00,0,,268
2011-12-17,51,39,27,32,29,25,94,76,46,30.40,30.35,30.31,10,10,10,12,8,20,0.00,0,,245
2011-12-18,56,42,28,39,34,28,99,73,52,30.31,30.15,29.95,10,10,10,23,10,28,0.00,3,,201
2011-12-19,50,44,39,48,43,34,100,91,55,30.12,30.03,29.94,10,7,3,18,13,25,1.38,6,Rain-Thunderstorm,236
2011-12-20,41,39,36,41,39,36,100,100,99,30.05,29.90,29.78,10,5,0,16,10,20,0.27,8,Fog-Rain,33
2011-12-21,46,38,30,37,34,30,100,93,59,30.01,29.86,29.78,10,10,8,16,9,22,0.00,5,,235
2011-12-22,34,31,27,34,30,22,100,94,78,30.41,30.21,30.00,10,9,5,16,9,,0.00,7,,350
2011-12-23,35,30,24,23,21,17,93,75,47,30.50,30.42,30.36,10,10,10,16,8,,0.00,3,,261
2011-12-24,47,34,22,30,25,21,97,76,46,30.44,30.37,30.33,10,10,10,13,8,,0.00,0,,223
2011-12-25,50,38,25,28,26,24,96,70,38,30.43,30.39,30.34,10,10,10,10,6,,0.00,0,,280
2011-12-26,43,32,21,39,32,21,100,88,66,30.36,30.13,29.91,10,10,8,15,7,,0.00,4,Rain,188
2011-12-27,46,40,33,38,29,26,100,71,46,30.13,30.00,29.86,10,10,10,21,10,26,0.00,2,,290
2011-12-28,52,38,24,32,29,24,99,73,38,30.11,30.01,29.89,10,10,10,22,8,29,0.00,1,,210
2011-12-29,54,44,35,38,34,32,88,64,45,29.86,29.75,29.61,10,10,10,16,12,,0.00,2,,213
2011-12-30,55,44,33,40,33,28,84,59,38,29.96,29.77,29.57,10,10,10,24,15,32,0.00,1,,272
2011-12-31,65,48,30,36,29,25,92,52,22,29.96,29.77,29.58,10,10,10,29,12,40,0.00,0,,194